Flag for Russia Weather past 2 weeks in Orenburg, Russia

Now
12 °F

Clear.


Feels Like: 3 °F
Forecast: 1 / 24 °F
Wind: 6 mph from Southeast

Location: Orenburg / Tsentralny

Current Time: Mar 29, 2015 at 12:32:14 AM

Latest Report: Mar 29, 2015 at 12:00 AM


Visibility: N/A

Pressure: 30.86 "Hg

Humidity: 79%

Dew point: 7 °F

Location of OrenburgLocation

Historic Weather in Orenburg — Graph

°F

Orenburg temperature yesterday

Maximum temperature yesterday: 28 °F (at 2:30 PM)
Minimum temperature yesterday: 12 °F (at 7:30 AM)
Average temperature yesterday: 20 °F

Past Weeks' High & Low Weather Summary

 TemperatureHumidityPressure
High39 °F (Mar 26, 12:00 PM)100% (Mar 20, 6:30 PM)30.86 "Hg (Mar 20, 6:30 PM)
Low9 °F (Mar 19, 7:00 AM)37% (Mar 28, 3:30 PM)29.59 "Hg (Mar 23, 12:30 PM)
Average27 °F77%30.30 "Hg
* Reported Mar 13 11:00 PM — Mar 28 11:30 PM, Orenburg, Weather by CustomWeather, © 2015

Note: Actual official high and low records may vary slightly from our data, if they occured in-between our weather recording intervals... More about our weather records

Advertising

Orenburg weather history for previous 24 hours

 ConditionsComfort  
Time TempWeatherWind HumidityBarometerVisibility
11:30 PM
Sat, Mar 28
12 °FClear.8 mph79%30.86 "HgN/A
11:00 PM12 °FClear.3 mph79%30.83 "HgN/A
10:30 PM16 °FClear.3 mph62%30.83 "HgN/A
10:00 PM18 °FClear.1 mph68%30.83 "HgN/A
9:30 PM18 °FSunny.1 mph68%30.83 "HgN/A
9:00 PM19 °FSunny.3 mph63%30.80 "HgN/A
8:30 PM19 °FSunny.6 mph68%30.80 "HgN/A
8:00 PM21 °FPassing clouds.8 mph68%30.80 "HgN/A
7:30 PM23 °FPassing clouds.6 mph63%30.80 "HgN/A
7:00 PM25 °FSunny.6 mph59%30.77 "HgN/A
6:30 PM27 °FSunny.8 mph54%30.77 "HgN/A
6:00 PM27 °FSunny.8 mph59%30.77 "HgN/A
5:30 PM28 °FSunny.10 mph51%30.77 "HgN/A
5:00 PM28 °FSunny.8 mph43%30.77 "HgN/A
4:30 PM28 °FSunny.8 mph37%30.77 "HgN/A
4:00 PM28 °FSunny.10 mph40%30.77 "HgN/A
3:30 PM28 °FSunny.10 mph37%30.77 "HgN/A
3:00 PM28 °FSunny.10 mph43%30.77 "HgN/A
2:30 PM28 °FSunny.10 mph47%30.77 "HgN/A
2:00 PM27 °FSunny.10 mph54%30.77 "HgN/A
1:30 PM27 °FSunny.13 mph59%30.77 "HgN/A
1:00 PM25 °FSunny.13 mph59%30.77 "HgN/A
12:30 PM25 °FSunny.10 mph59%30.77 "HgN/A
12:00 PM25 °FSunny.10 mph54%30.77 "HgN/A
11:30 AM23 °FSunny.15 mph63%30.77 "HgN/A
11:00 AM21 °FSunny.15 mph58%30.77 "HgN/A
10:30 AM19 °FSunny.15 mph63%30.77 "HgN/A
10:00 AM19 °FSunny.15 mph63%30.74 "HgN/A
9:30 AM18 °FSunny.15 mph62%30.74 "HgN/A
9:00 AM16 °FClear.15 mph67%30.72 "HgN/A
8:30 AM14 °FClear.13 mph67%30.72 "HgN/A
8:00 AM14 °FClear.13 mph67%30.72 "HgN/A
7:30 AM12 °FClear.13 mph73%30.69 "HgN/A
7:00 AM14 °FClear.15 mph67%30.69 "HgN/A
6:30 AM14 °FPassing clouds.15 mph62%30.69 "HgN/A
6:00 AM14 °FPassing clouds.15 mph67%30.69 "HgN/A
5:30 AM16 °FPassing clouds.15 mph57%30.69 "HgN/A
5:00 AM16 °FPassing clouds.15 mph57%30.66 "HgN/A
4:30 AM16 °FPassing clouds.15 mph57%30.66 "HgN/A
4:00 AM16 °FPassing clouds.15 mph62%30.66 "HgN/A
3:30 AM14 °FPassing clouds.13 mph67%30.63 "HgN/A
3:00 AM16 °FPassing clouds.15 mph67%30.63 "HgN/A
2:30 AM16 °FPassing clouds.13 mph67%30.63 "HgN/A
2:00 AM18 °FPassing clouds.13 mph62%30.60 "HgN/A
1:30 AM18 °FPassing clouds.10 mph62%30.60 "HgN/A
1:00 AM18 °FPassing clouds.10 mph62%30.60 "HgN/A
12:30 AM18 °FPassing clouds.13 mph68%30.57 "HgN/A
12:00 AM18 °FPassing clouds.15 mph68%30.57 "HgN/A
Weather by CustomWeather, © 2015

See weather overviewHow to use our weather pages